KLM508 EHAM-LEZL

Flight info

Callsign KLM508
Flight time 2h 28m
Altitude 37000
Route KUDA4E WOODY N872 CIV DCT KOVIN DCT DUCRA DCTRESMI DCT DEKOD DCT DISAK DCTARKIP DCTARNAV DCT LMG DCT UVELI DCT OSMOB DCT ARVID DCTPPN DCT NOLSA DCTALEPO DCTVASUM DCT BANEV DCT BAN DCT GOTOR DCT KAMPO DCT MONTO DCT MOLIN DCT HIJ HIJ4E
Aircraft B738/M-ICAO/L

Departure

Time 2026-04-30 11:05
Airport Amsterdam Airport Schiphol (EHAM)

Arrival

Time 2026-04-30 13:34
Airport Seville Airport (LEZL)
Time Latitude Longitude Altitude Speed Heading
2026-04-30 10:48 52.30934 4.76879 -3 ft 0 kts 140°
2026-04-30 10:56 52.30934 4.76878 -3 ft 1 kts 140°
2026-04-30 10:57 52.30944 4.76864 -3 ft 3 kts 140°
2026-04-30 10:57 52.30959 4.76844 -3 ft 3 kts 140°
2026-04-30 10:57 52.30974 4.76824 -3 ft 3 kts 140°
2026-04-30 10:57 52.30988 4.76800 -3 ft 3 kts 122°
2026-04-30 10:58 52.30996 4.76769 -3 ft 3 kts 102°
2026-04-30 10:58 52.30997 4.76747 -3 ft 0 kts 90°
2026-04-30 11:01 52.30998 4.76755 -3 ft 3 kts 80°
2026-04-30 11:01 52.31039 4.76819 -3 ft 11 kts 33°
2026-04-30 11:01 52.31106 4.76892 -3 ft 13 kts 33°
2026-04-30 11:01 52.31188 4.76981 -3 ft 16 kts 33°
2026-04-30 11:02 52.31285 4.77083 -3 ft 17 kts 31°
2026-04-30 11:02 52.31373 4.77170 -3 ft 14 kts 27°
2026-04-30 11:02 52.31476 4.77196 -3 ft 15 kts
2026-04-30 11:02 52.31566 4.77238 -3 ft 13 kts 62°
2026-04-30 11:03 52.31578 4.77383 -3 ft 14 kts 88°
2026-04-30 11:03 52.31585 4.77563 -3 ft 17 kts 88°
2026-04-30 11:03 52.31590 4.77697 -3 ft 8 kts 86°
2026-04-30 11:04 52.31599 4.77912 -3 ft 12 kts 86°
2026-04-30 11:04 52.31567 4.77965 -3 ft 5 kts 182°
2026-04-30 11:04 52.31558 4.77964 -3 ft 0 kts 183°
2026-04-30 11:04 52.31486 4.77958 -3 ft 33 kts 183°
2026-04-30 11:05 52.30993 4.77912 -3 ft 107 kts 183°
2026-04-30 11:05 52.30034 4.77823 34 ft 163 kts 183°
2026-04-30 11:05 52.28883 4.77717 775 ft 164 kts 181°
2026-04-30 11:05 52.27823 4.77788 1875 ft 144 kts 165°
2026-04-30 11:06 52.26870 4.78196 2663 ft 144 kts 158°
2026-04-30 11:06 52.25873 4.78661 3294 ft 154 kts 157°
2026-04-30 11:06 52.24778 4.79181 3740 ft 177 kts 158°
2026-04-30 11:06 52.23523 4.79776 4088 ft 202 kts 158°
2026-04-30 11:07 52.22075 4.80418 4424 ft 227 kts 163°
2026-04-30 11:07 52.20465 4.80654 5152 ft 236 kts 173°
2026-04-30 11:07 52.18809 4.80537 5909 ft 241 kts 178°
2026-04-30 11:07 52.17116 4.80286 6655 ft 245 kts 179°
2026-04-30 11:08 52.15405 4.80015 7382 ft 249 kts 179°
2026-04-30 11:08 52.13668 4.79748 8095 ft 252 kts 179°
2026-04-30 11:08 52.11904 4.79484 8798 ft 256 kts 179°
2026-04-30 11:08 52.10110 4.79220 9448 ft 263 kts 179°
2026-04-30 11:09 52.08219 4.78946 9916 ft 281 kts 179°
2026-04-30 11:09 52.06244 4.78664 10709 ft 286 kts 179°
2026-04-30 11:09 52.04264 4.78412 11447 ft 295 kts 180°
2026-04-30 11:09 52.02174 4.78106 11973 ft 309 kts 180°
2026-04-30 11:10 51.99964 4.77789 12341 ft 329 kts 180°
2026-04-30 11:10 51.97605 4.77457 12661 ft 349 kts 181°
2026-04-30 11:10 51.95117 4.77099 12924 ft 370 kts 182°
2026-04-30 11:10 51.92508 4.76336 13172 ft 392 kts 190°
2026-04-30 11:11 51.89872 4.74894 13527 ft 408 kts 199°
2026-04-30 11:11 51.87267 4.72927 14102 ft 416 kts 203°
2026-04-30 11:11 51.84712 4.70837 14805 ft 417 kts 204°
2026-04-30 11:11 51.82103 4.68736 15416 ft 422 kts 203°
2026-04-30 11:12 51.79417 4.66607 16021 ft 426 kts 203°
2026-04-30 11:12 51.76777 4.64535 16586 ft 430 kts 203°
2026-04-30 11:12 51.74077 4.62431 17221 ft 431 kts 203°
2026-04-30 11:12 51.71368 4.60328 17857 ft 433 kts 203°
2026-04-30 11:13 51.68626 4.58205 18210 ft 441 kts 203°
2026-04-30 11:13 51.65850 4.56034 18726 ft 445 kts 204°
2026-04-30 11:13 51.63047 4.53863 19260 ft 447 kts 203°
2026-04-30 11:13 51.60222 4.51702 19756 ft 451 kts 203°
2026-04-30 11:14 51.57370 4.49522 20254 ft 454 kts 203°
2026-04-30 11:14 51.54515 4.47340 20837 ft 455 kts 203°
2026-04-30 11:14 51.51640 4.45142 21225 ft 460 kts 203°
2026-04-30 11:14 51.48746 4.42931 21650 ft 463 kts 203°
2026-04-30 11:15 51.45838 4.40711 22148 ft 465 kts 203°
2026-04-30 11:15 51.42944 4.38470 22518 ft 468 kts 204°
2026-04-30 11:15 51.39995 4.36201 22917 ft 471 kts 204°
2026-04-30 11:15 51.37026 4.33931 23399 ft 472 kts 204°
2026-04-30 11:16 51.34052 4.31665 23750 ft 475 kts 204°
2026-04-30 11:16 51.31052 4.29386 24134 ft 477 kts 204°
2026-04-30 11:16 51.28042 4.27105 24470 ft 481 kts 204°
2026-04-30 11:16 51.25006 4.24810 24785 ft 484 kts 203°
2026-04-30 11:17 51.21950 4.22502 25129 ft 486 kts 203°
2026-04-30 11:17 51.18889 4.20190 25493 ft 488 kts 203°
2026-04-30 11:17 51.15792 4.17960 25831 ft 489 kts 200°
2026-04-30 11:17 51.12611 4.16044 26132 ft 490 kts 197°
2026-04-30 11:18 51.09372 4.14298 26495 ft 490 kts 195°
2026-04-30 11:18 51.02960 4.10910 27366 ft 488 kts 195°
2026-04-30 11:18 50.99753 4.09183 27792 ft 487 kts 195°
2026-04-30 11:19 50.96547 4.07448 28217 ft 486 kts 195°
2026-04-30 11:19 50.93356 4.05717 28640 ft 485 kts 195°
2026-04-30 11:19 50.90168 4.03986 29058 ft 484 kts 195°
2026-04-30 11:19 50.86968 4.02252 29474 ft 483 kts 196°
2026-04-30 11:20 50.83832 4.00371 29881 ft 483 kts 199°
2026-04-30 11:20 50.80730 3.98302 30281 ft 483 kts 200°
2026-04-30 11:20 50.77644 3.96247 30672 ft 481 kts 199°
2026-04-30 11:20 50.74552 3.94228 31066 ft 480 kts 199°
2026-04-30 11:21 50.71463 3.92236 31429 ft 479 kts 199°
2026-04-30 11:21 50.68380 3.90261 31865 ft 477 kts 198°
2026-04-30 11:21 50.65339 3.88325 32192 ft 477 kts 198°
2026-04-30 11:21 50.62263 3.86371 32559 ft 474 kts 199°
2026-04-30 11:22 50.59201 3.84429 32914 ft 475 kts 199°
2026-04-30 11:22 50.56136 3.82464 33196 ft 476 kts 200°
2026-04-30 11:22 50.53104 3.80409 33591 ft 474 kts 200°
2026-04-30 11:22 50.50081 3.78338 33884 ft 474 kts 200°
2026-04-30 11:23 50.47060 3.76276 34290 ft 471 kts 200°
2026-04-30 11:23 50.44053 3.74229 34556 ft 471 kts 201°
2026-04-30 11:23 50.38064 3.70166 35439 ft 463 kts 201°
2026-04-30 11:24 50.35114 3.68171 35753 ft 462 kts 201°
2026-04-30 11:24 50.32189 3.66196 35973 ft 463 kts 201°
2026-04-30 11:24 50.29233 3.64204 36268 ft 462 kts 201°
2026-04-30 11:25 50.23343 3.60221 36839 ft 460 kts 201°
2026-04-30 11:25 50.20407 3.58231 37139 ft 459 kts 201°
2026-04-30 11:25 50.14527 3.54265 37315 ft 461 kts 201°
2026-04-30 11:26 50.08637 3.50309 37318 ft 458 kts 201°
2026-04-30 11:26 50.02837 3.46429 37319 ft 456 kts 201°
2026-04-30 11:27 49.96994 3.42532 37319 ft 457 kts 201°
2026-04-30 11:27 49.91138 3.38645 37318 ft 457 kts 202°
2026-04-30 11:28 49.82346 3.32801 37318 ft 457 kts 201°
2026-04-30 11:29 49.76503 3.28933 37319 ft 457 kts 201°
2026-04-30 11:29 49.67736 3.23148 37319 ft 461 kts 201°
2026-04-30 11:30 49.58830 3.17321 37312 ft 463 kts 201°
2026-04-30 11:31 49.52944 3.13482 37267 ft 463 kts 201°
2026-04-30 11:31 49.47131 3.09164 37243 ft 465 kts 209°
2026-04-30 11:32 49.41699 3.03719 37232 ft 466 kts 212°
2026-04-30 11:32 49.37201 2.99134 37223 ft 466 kts 212°
2026-04-30 11:33 49.29073 2.90909 37207 ft 467 kts 211°
2026-04-30 11:33 49.23639 2.85434 37201 ft 467 kts 211°
2026-04-30 11:34 49.18237 2.79929 37200 ft 465 kts 212°
2026-04-30 11:34 49.12852 2.74510 37201 ft 462 kts 211°
2026-04-30 11:35 49.07513 2.69174 37201 ft 459 kts 211°
2026-04-30 11:35 49.02170 2.63852 37197 ft 458 kts 211°
2026-04-30 11:36 48.96824 2.58538 37193 ft 459 kts 211°
2026-04-30 11:36 48.91473 2.53238 37197 ft 459 kts 211°
2026-04-30 11:37 48.86120 2.47951 37196 ft 459 kts 211°
2026-04-30 11:37 48.80806 2.42673 37180 ft 459 kts 211°
2026-04-30 11:38 48.75457 2.37384 37172 ft 459 kts 211°
2026-04-30 11:38 48.70103 2.32131 37172 ft 458 kts 211°
2026-04-30 11:39 48.64749 2.26892 37171 ft 458 kts 211°
2026-04-30 11:39 48.59345 2.21808 37171 ft 457 kts 206°
2026-04-30 11:40 48.53359 2.18705 37171 ft 455 kts 189°
2026-04-30 11:40 48.47073 2.17456 37168 ft 454 kts 185°
2026-04-30 11:41 48.40819 2.16449 37167 ft 455 kts 185°
2026-04-30 11:41 48.34529 2.15417 37165 ft 455 kts 185°
2026-04-30 11:42 48.28228 2.14374 37152 ft 455 kts 185°
2026-04-30 11:42 48.21939 2.13329 37142 ft 455 kts 186°
2026-04-30 11:43 48.15661 2.12283 37133 ft 453 kts 187°
2026-04-30 11:43 48.09439 2.11236 37125 ft 451 kts 185°
2026-04-30 11:44 48.03195 2.10202 37120 ft 451 kts 185°
2026-04-30 11:44 47.96950 2.09167 37117 ft 451 kts 185°
2026-04-30 11:45 47.90708 2.08130 37113 ft 451 kts 185°
2026-04-30 11:45 47.84508 2.07107 37113 ft 451 kts 185°
2026-04-30 11:46 47.78259 2.06081 37112 ft 451 kts 185°
2026-04-30 11:46 47.72017 2.05059 37112 ft 451 kts 185°
2026-04-30 11:47 47.65769 2.03953 37111 ft 452 kts 189°
2026-04-30 11:47 47.59726 2.01585 37113 ft 453 kts 199°
2026-04-30 11:48 47.53847 1.98190 37112 ft 453 kts 200°
2026-04-30 11:48 47.47984 1.94752 37112 ft 453 kts 200°
2026-04-30 11:49 47.42122 1.91344 37112 ft 453 kts 200°
2026-04-30 11:49 47.36288 1.87980 37112 ft 453 kts 200°
2026-04-30 11:50 47.30410 1.84606 37112 ft 453 kts 200°
2026-04-30 11:50 47.24529 1.81239 37112 ft 453 kts 200°
2026-04-30 11:51 47.18666 1.77896 37112 ft 451 kts 200°
2026-04-30 11:51 47.12806 1.74602 37112 ft 451 kts 200°
2026-04-30 11:52 47.06943 1.71315 37112 ft 450 kts 200°
2026-04-30 11:52 47.01088 1.68039 37112 ft 450 kts 200°
2026-04-30 11:53 46.95230 1.64770 37112 ft 450 kts 200°
2026-04-30 11:53 46.89377 1.61511 37112 ft 450 kts 200°
2026-04-30 11:54 46.83556 1.58249 37112 ft 451 kts 200°
2026-04-30 11:54 46.77703 1.54982 37112 ft 450 kts 200°
2026-04-30 11:55 46.71836 1.51721 37113 ft 451 kts 200°
2026-04-30 11:55 46.65983 1.48477 37112 ft 449 kts 200°
2026-04-30 11:56 46.60136 1.45246 37112 ft 449 kts 200°
2026-04-30 11:56 46.54287 1.42021 37116 ft 450 kts 200°
2026-04-30 11:57 46.48457 1.38816 37115 ft 451 kts 200°
2026-04-30 11:57 46.42596 1.35601 37111 ft 449 kts 201°
2026-04-30 11:58 46.36721 1.32388 37118 ft 452 kts 201°
2026-04-30 11:58 46.30835 1.29171 37119 ft 450 kts 201°
2026-04-30 11:59 46.24981 1.25981 37123 ft 449 kts 201°
2026-04-30 11:59 46.19127 1.22799 37132 ft 449 kts 201°
2026-04-30 12:00 46.13304 1.19640 37135 ft 445 kts 201°
2026-04-30 12:00 46.07507 1.16486 37132 ft 446 kts 201°
2026-04-30 12:01 46.01701 1.13347 37135 ft 446 kts 201°
2026-04-30 12:01 45.95918 1.10236 37137 ft 446 kts 201°
2026-04-30 12:02 45.90103 1.07116 37137 ft 446 kts 201°
2026-04-30 12:02 45.84318 1.03895 37138 ft 446 kts 205°
2026-04-30 12:03 45.76570 0.96556 37139 ft 446 kts 219°
2026-04-30 12:04 45.71805 0.90873 37135 ft 445 kts 219°
2026-04-30 12:04 45.67061 0.85220 37135 ft 443 kts 219°
2026-04-30 12:05 45.62340 0.79610 37135 ft 444 kts 219°
2026-04-30 12:05 45.57578 0.73963 37132 ft 444 kts 219°
2026-04-30 12:06 45.52867 0.68359 37129 ft 444 kts 220°
2026-04-30 12:06 45.48123 0.62713 37132 ft 444 kts 219°
2026-04-30 12:07 45.43371 0.57085 37132 ft 444 kts 219°
2026-04-30 12:07 45.38615 0.51472 37131 ft 444 kts 219°
2026-04-30 12:08 45.33877 0.45897 37131 ft 444 kts 219°
2026-04-30 12:08 45.29118 0.40309 37129 ft 444 kts 219°
2026-04-30 12:09 45.24360 0.34700 37126 ft 444 kts 219°
2026-04-30 12:09 45.19600 0.29136 37125 ft 442 kts 219°
2026-04-30 12:10 45.14860 0.23623 37123 ft 440 kts 219°
2026-04-30 12:10 45.10117 0.18120 37122 ft 441 kts 219°
2026-04-30 12:11 45.05366 0.12616 37118 ft 441 kts 219°
2026-04-30 12:11 45.00617 0.07127 37114 ft 441 kts 219°
2026-04-30 12:12 44.95864 0.01651 37112 ft 441 kts 219°
2026-04-30 12:12 44.91135 -0.03786 37108 ft 441 kts 219°
2026-04-30 12:13 44.86390 -0.09283 37101 ft 441 kts 219°
2026-04-30 12:13 44.81637 -0.14754 37097 ft 441 kts 219°
2026-04-30 12:14 44.76865 -0.20214 37115 ft 442 kts 218°
2026-04-30 12:14 44.72117 -0.25626 37121 ft 442 kts 219°
2026-04-30 12:15 44.67340 -0.31061 37103 ft 444 kts 219°
2026-04-30 12:15 44.62180 -0.35857 37102 ft 445 kts 210°
2026-04-30 12:16 44.56701 -0.39896 37101 ft 445 kts 208°
2026-04-30 12:16 44.51197 -0.43910 37093 ft 445 kts 208°
2026-04-30 12:17 44.42951 -0.49920 37107 ft 445 kts 208°
2026-04-30 12:17 44.37462 -0.53914 37113 ft 445 kts 208°
2026-04-30 12:18 44.32002 -0.57900 37106 ft 446 kts 208°
2026-04-30 12:18 44.26500 -0.61921 37129 ft 445 kts 208°
2026-04-30 12:19 44.21007 -0.65916 37151 ft 444 kts 209°
2026-04-30 12:19 44.15550 -0.69875 37150 ft 440 kts 210°
2026-04-30 12:20 44.10148 -0.73786 37140 ft 441 kts 210°
2026-04-30 12:20 44.04692 -0.77727 37152 ft 443 kts 210°
2026-04-30 12:21 43.99195 -0.81687 37146 ft 445 kts 210°
2026-04-30 12:21 43.93711 -0.85630 37146 ft 444 kts 209°
2026-04-30 12:22 43.88255 -0.89543 37153 ft 444 kts 209°
2026-04-30 12:22 43.82772 -0.93468 37141 ft 443 kts 209°
2026-04-30 12:23 43.77290 -0.97384 37117 ft 443 kts 209°
2026-04-30 12:23 43.72731 -1.00634 37104 ft 443 kts 209°
2026-04-30 12:24 43.67254 -1.04526 37094 ft 441 kts 210°
2026-04-30 12:24 43.61806 -1.08398 37086 ft 440 kts 210°
2026-04-30 12:25 43.56352 -1.12265 37095 ft 441 kts 210°
2026-04-30 12:25 43.50886 -1.16132 37103 ft 441 kts 210°
2026-04-30 12:26 43.45459 -1.19962 37090 ft 440 kts 210°
2026-04-30 12:26 43.40004 -1.23806 37086 ft 441 kts 210°
2026-04-30 12:27 43.34541 -1.27658 37088 ft 441 kts 211°
2026-04-30 12:27 43.29071 -1.31508 37081 ft 442 kts 211°
2026-04-30 12:28 43.23560 -1.35363 37079 ft 446 kts 211°
2026-04-30 12:28 43.18044 -1.39211 37067 ft 444 kts 211°
2026-04-30 12:29 43.12540 -1.43043 37067 ft 443 kts 211°
2026-04-30 12:29 43.07071 -1.46847 37067 ft 444 kts 211°
2026-04-30 12:30 43.01559 -1.50684 37049 ft 445 kts 211°
2026-04-30 12:30 42.96039 -1.54538 37032 ft 445 kts 211°
2026-04-30 12:31 42.90537 -1.58356 37060 ft 443 kts 211°
2026-04-30 12:31 42.85038 -1.62158 37076 ft 443 kts 211°
2026-04-30 12:32 42.79542 -1.65950 37083 ft 442 kts 211°
2026-04-30 12:32 42.74068 -1.69721 37084 ft 442 kts 211°
2026-04-30 12:33 42.68570 -1.73435 37084 ft 440 kts 211°
2026-04-30 12:33 42.63079 -1.77121 37086 ft 440 kts 211°
2026-04-30 12:34 42.57604 -1.80792 37090 ft 439 kts 211°
2026-04-30 12:34 42.52128 -1.84486 37093 ft 439 kts 211°
2026-04-30 12:35 42.46649 -1.88162 37096 ft 439 kts 211°
2026-04-30 12:35 42.41197 -1.91801 37104 ft 439 kts 211°
2026-04-30 12:36 42.35707 -1.95455 37105 ft 439 kts 211°
2026-04-30 12:36 42.30255 -1.99077 37104 ft 439 kts 211°
2026-04-30 12:37 42.24763 -2.02718 37105 ft 439 kts 211°
2026-04-30 12:37 42.19288 -2.06334 37105 ft 437 kts 211°
2026-04-30 12:38 42.13849 -2.09919 37099 ft 433 kts 211°
2026-04-30 12:38 42.08460 -2.13465 37105 ft 434 kts 211°
2026-04-30 12:39 42.03024 -2.17034 37109 ft 434 kts 211°
2026-04-30 12:39 41.97589 -2.20598 37104 ft 434 kts 211°
2026-04-30 12:40 41.92165 -2.24170 37100 ft 434 kts 211°
2026-04-30 12:40 41.86773 -2.27710 37103 ft 434 kts 211°
2026-04-30 12:41 41.81336 -2.31268 37100 ft 435 kts 211°
2026-04-30 12:41 41.75905 -2.34827 37096 ft 434 kts 211°
2026-04-30 12:42 41.70470 -2.38372 37109 ft 434 kts 211°
2026-04-30 12:42 41.65040 -2.41896 37113 ft 434 kts 210°
2026-04-30 12:43 41.59549 -2.45453 37112 ft 442 kts 209°
2026-04-30 12:43 41.54031 -2.49016 37102 ft 438 kts 210°
2026-04-30 12:44 41.48603 -2.52526 37103 ft 433 kts 210°
2026-04-30 12:44 41.43179 -2.56023 37103 ft 433 kts 210°
2026-04-30 12:45 41.37740 -2.59520 37109 ft 433 kts 210°
2026-04-30 12:45 41.32359 -2.63107 37115 ft 430 kts 215°
2026-04-30 12:46 41.27398 -2.67501 37112 ft 428 kts 219°
2026-04-30 12:46 41.22537 -2.71979 37112 ft 427 kts 219°
2026-04-30 12:47 41.17654 -2.76464 37112 ft 426 kts 218°
2026-04-30 12:47 41.12778 -2.80929 37112 ft 425 kts 218°
2026-04-30 12:48 41.07908 -2.85376 37112 ft 425 kts 218°
2026-04-30 12:48 41.03033 -2.89829 37112 ft 425 kts 218°
2026-04-30 12:49 40.98167 -2.94291 37112 ft 425 kts 218°
2026-04-30 12:49 40.93301 -2.98735 37112 ft 425 kts 218°
2026-04-30 12:50 40.88429 -3.03171 37112 ft 425 kts 218°
2026-04-30 12:50 40.83583 -3.07572 37112 ft 425 kts 218°
2026-04-30 12:51 40.78704 -3.11992 37112 ft 425 kts 218°
2026-04-30 12:51 40.73820 -3.16409 37112 ft 425 kts 218°
2026-04-30 12:52 40.68949 -3.20808 37111 ft 424 kts 217°
2026-04-30 12:52 40.64079 -3.25195 37112 ft 423 kts 217°
2026-04-30 12:53 40.59213 -3.29571 37113 ft 424 kts 217°
2026-04-30 12:53 40.54340 -3.33944 37112 ft 424 kts 217°
2026-04-30 12:54 40.49472 -3.38306 37112 ft 424 kts 217°
2026-04-30 12:54 40.44631 -3.42636 37112 ft 424 kts 217°
2026-04-30 12:55 40.39759 -3.46987 37112 ft 424 kts 216°
2026-04-30 12:55 40.34886 -3.51350 37112 ft 423 kts 217°
2026-04-30 12:56 40.30012 -3.55695 37112 ft 424 kts 216°
2026-04-30 12:56 40.25126 -3.60031 37112 ft 424 kts 216°
2026-04-30 12:57 40.20266 -3.64333 37112 ft 425 kts 216°
2026-04-30 12:57 40.15361 -3.68666 37112 ft 425 kts 216°
2026-04-30 12:58 40.10418 -3.73029 37115 ft 431 kts 216°
2026-04-30 12:58 40.05462 -3.77390 37112 ft 428 kts 216°
2026-04-30 12:59 40.00549 -3.81706 37112 ft 424 kts 216°
2026-04-30 12:59 39.95661 -3.86028 37112 ft 424 kts 216°
2026-04-30 13:00 39.90762 -3.90330 37112 ft 425 kts 215°
2026-04-30 13:00 39.85891 -3.94590 37112 ft 425 kts 215°
2026-04-30 13:01 39.80986 -3.98870 37112 ft 425 kts 215°
2026-04-30 13:01 39.76072 -4.03151 37112 ft 425 kts 215°
2026-04-30 13:02 39.71158 -4.07429 37112 ft 426 kts 215°
2026-04-30 13:02 39.66206 -4.11723 37112 ft 428 kts 214°
2026-04-30 13:03 39.61296 -4.15975 37112 ft 427 kts 214°
2026-04-30 13:03 39.56340 -4.20260 37112 ft 427 kts 214°
2026-04-30 13:04 39.51394 -4.24530 37112 ft 427 kts 214°
2026-04-30 13:04 39.46440 -4.28832 37112 ft 429 kts 214°
2026-04-30 13:05 39.41477 -4.33131 37112 ft 429 kts 214°
2026-04-30 13:06 39.34046 -4.39522 37102 ft 430 kts 214°
2026-04-30 13:06 39.29058 -4.43796 37099 ft 430 kts 214°
2026-04-30 13:07 39.24071 -4.48063 37101 ft 430 kts 214°
2026-04-30 13:07 39.19090 -4.52334 37099 ft 430 kts 214°
2026-04-30 13:08 39.14093 -4.56601 37092 ft 431 kts 214°
2026-04-30 13:08 39.09090 -4.60860 37088 ft 431 kts 214°
2026-04-30 13:09 39.04121 -4.65083 37087 ft 431 kts 214°
2026-04-30 13:09 38.99107 -4.69338 36897 ft 431 kts 213°
2026-04-30 13:09 38.96609 -4.71452 36117 ft 432 kts 213°
2026-04-30 13:10 38.94089 -4.73582 35301 ft 434 kts 213°
2026-04-30 13:10 38.91559 -4.75718 34528 ft 435 kts 213°
2026-04-30 13:10 38.89024 -4.77859 33747 ft 436 kts 213°
2026-04-30 13:10 38.86486 -4.79998 32952 ft 437 kts 213°
2026-04-30 13:11 38.83944 -4.82141 32139 ft 438 kts 213°
2026-04-30 13:11 38.81389 -4.84292 31308 ft 438 kts 213°
2026-04-30 13:11 38.78838 -4.86438 30454 ft 440 kts 213°
2026-04-30 13:11 38.76283 -4.88604 29586 ft 441 kts 213°
2026-04-30 13:12 38.73754 -4.90750 28717 ft 441 kts 213°
2026-04-30 13:12 38.71185 -4.92920 27817 ft 442 kts 213°
2026-04-30 13:12 38.68610 -4.95086 26891 ft 443 kts 213°
2026-04-30 13:13 38.63455 -4.99407 25273 ft 439 kts 213°
2026-04-30 13:13 38.61761 -5.00825 24798 ft 436 kts 213°
2026-04-30 13:13 38.56711 -5.05045 23373 ft 429 kts 213°
2026-04-30 13:14 38.53405 -5.07764 22437 ft 425 kts 211°
2026-04-30 13:14 38.51662 -5.08997 21960 ft 423 kts 207°
2026-04-30 13:14 38.46238 -5.11779 20557 ft 418 kts 199°
2026-04-30 13:15 38.43465 -5.12887 19861 ft 416 kts 198°
2026-04-30 13:15 38.37944 -5.15027 18468 ft 412 kts 198°
2026-04-30 13:15 38.35239 -5.16078 17785 ft 410 kts 198°
2026-04-30 13:16 38.32514 -5.17137 17096 ft 408 kts 198°
2026-04-30 13:16 38.29797 -5.18194 16408 ft 406 kts 198°
2026-04-30 13:16 38.27107 -5.19240 15714 ft 404 kts 198°
2026-04-30 13:17 38.21751 -5.21324 14372 ft 399 kts 198°
2026-04-30 13:17 38.19114 -5.22349 13791 ft 393 kts 198°
2026-04-30 13:17 38.14002 -5.24345 12474 ft 376 kts 198°
2026-04-30 13:18 38.11568 -5.25294 12260 ft 354 kts 198°
2026-04-30 13:18 38.07115 -5.27029 11954 ft 318 kts 198°
2026-04-30 13:18 38.05043 -5.27839 11789 ft 304 kts 198°
2026-04-30 13:19 38.03061 -5.28610 11628 ft 291 kts 198°
2026-04-30 13:19 38.01164 -5.29348 11474 ft 280 kts 198°
2026-04-30 13:19 37.99316 -5.30064 11326 ft 275 kts 198°
2026-04-30 13:19 37.97497 -5.30769 11178 ft 271 kts 198°
2026-04-30 13:20 37.95701 -5.31463 11032 ft 268 kts 198°
2026-04-30 13:20 37.93931 -5.32147 10889 ft 264 kts 198°
2026-04-30 13:20 37.92180 -5.32824 10747 ft 261 kts 198°
2026-04-30 13:20 37.90456 -5.33489 10607 ft 257 kts 198°
2026-04-30 13:21 37.88772 -5.34139 10469 ft 254 kts 198°
2026-04-30 13:21 37.87085 -5.34789 10333 ft 253 kts 198°
2026-04-30 13:21 37.85383 -5.35445 10198 ft 258 kts 198°
2026-04-30 13:22 37.81889 -5.36790 9759 ft 267 kts 198°
2026-04-30 13:22 37.80097 -5.37480 9471 ft 270 kts 198°
2026-04-30 13:22 37.76610 -5.39145 8884 ft 267 kts 211°
2026-04-30 13:23 37.75099 -5.40498 8591 ft 266 kts 218°
2026-04-30 13:23 37.72354 -5.43576 8007 ft 264 kts 221°
2026-04-30 13:24 37.69615 -5.46693 7422 ft 262 kts 221°
2026-04-30 13:24 37.66921 -5.49725 6839 ft 260 kts 221°
2026-04-30 13:25 37.63792 -5.51854 6366 ft 253 kts 197°
2026-04-30 13:25 37.60481 -5.53057 5969 ft 243 kts 197°
2026-04-30 13:26 37.55701 -5.54788 5290 ft 233 kts 197°
2026-04-30 13:26 37.52618 -5.55906 4841 ft 226 kts 197°
2026-04-30 13:27 37.49667 -5.56978 4369 ft 218 kts 197°
2026-04-30 13:28 37.45435 -5.58525 3741 ft 201 kts 197°
2026-04-30 13:28 37.42976 -5.59829 3298 ft 191 kts 231°
2026-04-30 13:28 37.42455 -5.61347 3142 ft 191 kts 255°
2026-04-30 13:29 37.42090 -5.64629 3043 ft 188 kts 262°
2026-04-30 13:29 37.41901 -5.67930 3029 ft 192 kts 267°
2026-04-30 13:30 37.41851 -5.72876 2358 ft 180 kts 269°
2026-04-30 13:31 37.41839 -5.75862 1903 ft 160 kts 269°
2026-04-30 13:31 37.41825 -5.79874 1300 ft 149 kts 269°
2026-04-30 13:32 37.41817 -5.82492 903 ft 150 kts 269°
2026-04-30 13:32 37.41808 -5.85107 507 ft 150 kts 269°
2026-04-30 13:33 37.41799 -5.87722 125 ft 147 kts 270°
2026-04-30 13:33 37.41793 -5.89584 119 ft 57 kts 270°
2026-04-30 13:34 37.41791 -5.89903 119 ft 24 kts 270°
2026-04-30 13:34 37.41873 -5.90153 119 ft 9 kts 357°
2026-04-30 13:35 37.41921 -5.90155 119 ft 5 kts 357°
2026-04-30 13:35 37.42017 -5.90141 119 ft 10 kts 55°
2026-04-30 13:36 37.42087 -5.89964 119 ft 12 kts 46°
2026-04-30 13:36 37.42111 -5.89875 119 ft 11 kts 87°
2026-04-30 13:36 37.42165 -5.89747 119 ft 4 kts 40°
2026-04-30 13:37 37.42175 -5.89737 119 ft 0 kts 40°
2026-04-30 13:37 37.42199 -5.89712 119 ft 9 kts 40°
2026-04-30 13:38 37.42269 -5.89708 119 ft 3 kts 311°
2026-04-30 13:38 37.42292 -5.89744 119 ft 5 kts 307°
2026-04-30 13:38 37.42324 -5.89795 119 ft 0 kts 308°